SL-14 R/B

Satellite information

Favourite Embed

Satellite Type and Status

ROCKET BODYIN ORBIT

Key statistics

Satellite SL-14 R/B at a glance.

Uptime

14542

Days in orbit

Revolutions

≈ 14.9

Per day

Orbit

LEO

Low Earth Orbit

Inclination

82.5

Latest

Satellite identification and parameters

Extended collection of information and parameters for SL-14 R/B.

Object identification

Identified? True

Debris? False

Object name: SL-14 R/B

International designator: 1986-018B

Object number (NORAD): 16612

Object ID (CCSDS): 16612

Country: COMMONWEALTH OF INDEPENDENT STATES (CIS)

Current information (Y/N): Y

RCS size: LARGE

Orbital parameters

Period: 96.868 minutes

Inclination: 82.5161 deg

SMA: 6986.816 km

Apoapsis: 620.404 km

Periapsis: 596.957 km

RAAN: 265.2409 deg

Eccentricy: 0.001678

Argument of periapsis: 357.8838 deg

Mean anomaly: 2.2305 deg

Mean motion: 14.86564791 rev/day

Mean motion (dot): 0.00000912 rev/day2

B* drag term: 0.00010007582 1/REarth

Two-line elements (TLE)

Creation date: Dec. 12, 2025, 10:14 a.m.

Reference frame: TEME

Reference center: EARTH

Epoch: Dec. 12, 2025, 6:57 a.m. UTC

TLE line 0: 0 SL-14 R/B

TLE line 1: 1 16612U 86018B 25346.28981312 .00000912 00000-0 10008-3 0 9997

TLE line 2: 2 16612 82.5161 265.2409 0016780 357.8838 2.2305 14.86564791 30368

Live tracking on map

Real-time ground track for satellite SL-14 R/B.

In-orbit conjunctions

A list of the most updated potential collisions computed for object SL-14 R/B.

Target Orbit TCA Probability of collision Miss distance Type
CZ-4 DEB SSO 2025-08-01 23:58:47 0.0002049729 225.0 (m) DEBRIS
COSMOS 2251 DEB LEO 2025-06-10 22:25:53 0.0002099328 377.0 (m) DEBRIS
COSMOS 1275 DEB LEO 2025-05-22 07:10:37 0.0002641441 273.0 (m) DEBRIS
CZ-6A DEB LEO 2025-04-10 11:28:36 0.0001005444 176.0 (m) DEBRIS
CZ-6A DEB LEO 2025-03-12 02:36:33 0.0002309864 629.0 (m) DEBRIS

Associated space launch

Tselina-D satellites provided detailed observation of radio sources detected by the smaller Tselina-O satellites as part of the Tselina ELINT system.

SL-14 R/B was lifted into orbit during the mission ‘Tsiklon-3 | Tselina-D 54’, on board a Tsiklon-3 space rocket.

The launch took place on Feb. 19, 1986, 11:04 p.m. from 32/1.

For more information about the launch, click the button.

Launch to space Tsiklon-3 | Tselina-D 54
Tsiklon-3 | Tselina-D 54

Agency: N/A

Status: Launch Successful

Launch date: Feb. 19, 1986, 11:04 p.m. UTC

Rocket: Tsiklon-3

Launch pad: 32/1

Location: Plesetsk Cosmodrome, Russian Federation

...

Latest news about this satellite

There are no fresh news available about this satellite. Check back as we update our databases every day.


Newsletter sign-up

Weekly statistics, charts and insights to help you stay on top of the space industry.